Tiempo cada hora Cazones

Hoy, 20 Abril, Martes

Tiempo Temperatura Precipitaciones Viento Presión Humedad
00:00 +22°C° 0 mm 3 mps 759 mmHg 85%
01:00 +22°C° 0 mm 3 mps 759 mmHg 83%
02:00 +22°C° 0 mm 3 mps 759 mmHg 82%
03:00 +22°C° 0 mm 3 mps 759 mmHg 81%
04:00 +22°C° 0 mm 3 mps 759 mmHg 80%
05:00 +22°C° 0 mm 3 mps 759 mmHg 79%
06:00 +22°C° 0 mm 3 mps 759 mmHg 79%
07:00 +23°C° 0 mm 4 mps 760 mmHg 78%
08:00 +23°C° 0 mm 4 mps 760 mmHg 77%
09:00 +25°C° 0 mm 4 mps 761 mmHg 77%
10:00 +26°C° 0 mm 4 mps 760 mmHg 72%
11:00 +28°C° 0 mm 4 mps 760 mmHg 67%
12:00 +29°C° 0 mm 4 mps 760 mmHg 61%
13:00 +29°C° 0 mm 5 mps 759 mmHg 61%
14:00 +30°C° 0 mm 5 mps 758 mmHg 61%
15:00 +30°C° 0 mm 6 mps 758 mmHg 60%
16:00 +29°C° 0 mm 5 mps 758 mmHg 65%
17:00 +28°C° 0 mm 5 mps 758 mmHg 69%
18:00 +27°C° 0 mm 5 mps 758 mmHg 73%
19:00 +27°C° 0 mm 4 mps 759 mmHg 79%
20:00 +26°C° 0 mm 3 mps 760 mmHg 84%
21:00 +25°C° 0 mm 2 mps 760 mmHg 90%
22:00 +25°C° 0.2 mm 2 mps 760 mmHg 90%
23:00 +25°C° 0.2 mm 2 mps 760 mmHg 90%

Mañana, 21 Abril, Miércoles

Tiempo Temperatura Precipitaciones Viento Presión Humedad
00:00 +25°C° 0.2 mm 1 mps 761 mmHg 90%
01:00 +25°C° 0.2 mm 1 mps 760 mmHg 91%
02:00 +25°C° 0.2 mm 2 mps 760 mmHg 91%
03:00 +25°C° 0.2 mm 2 mps 760 mmHg 92%
04:00 +24°C° 0.2 mm 2 mps 760 mmHg 93%
05:00 +24°C° 0.2 mm 2 mps 761 mmHg 93%
06:00 +24°C° 0.2 mm 2 mps 761 mmHg 94%
07:00 +25°C° 0.1 mm 3 mps 761 mmHg 87%
08:00 +26°C° 0.1 mm 3 mps 762 mmHg 80%
09:00 +28°C° 0.1 mm 4 mps 762 mmHg 73%
10:00 +29°C° 0.3 mm 4 mps 762 mmHg 69%
11:00 +29°C° 0.3 mm 4 mps 762 mmHg 66%
12:00 +30°C° 0.3 mm 4 mps 762 mmHg 62%
13:00 +30°C° 0.2 mm 5 mps 761 mmHg 62%
14:00 +30°C° 0.2 mm 6 mps 761 mmHg 62%
15:00 +30°C° 0.2 mm 6 mps 760 mmHg 62%
16:00 +29°C° 0.2 mm 6 mps 760 mmHg 67%
17:00 +28°C° 0.2 mm 6 mps 760 mmHg 72%
18:00 +27°C° 0.2 mm 5 mps 760 mmHg 78%
19:00 +26°C° 0.4 mm 4 mps 760 mmHg 83%
20:00 +25°C° 0.4 mm 3 mps 761 mmHg 89%
21:00 +25°C° 0.4 mm 2 mps 761 mmHg 95%
22:00 +24°C° 0.2 mm 2 mps 761 mmHg 94%
23:00 +24°C° 0.2 mm 1 mps 760 mmHg 94%

Pasado mañana, 22 Abril, Jueves

Tiempo Temperatura Precipitaciones Viento Presión Humedad
00:00 +24°C° 0.2 mm 1 mps 760 mmHg 94%
01:00 +24°C° 0.1 mm 1 mps 760 mmHg 95%
02:00 +24°C° 0.1 mm 1 mps 759 mmHg 95%
03:00 +24°C° 0.1 mm 1 mps 759 mmHg 95%
04:00 +24°C° 0 mm 1 mps 759 mmHg 95%
05:00 +23°C° 0 mm 1 mps 759 mmHg 95%
06:00 +23°C° 0 mm 1 mps 759 mmHg 95%
07:00 +25°C° 0 mm 1 mps 759 mmHg 88%
08:00 +27°C° 0 mm 1 mps 760 mmHg 80%
09:00 +28°C° 0 mm 1 mps 760 mmHg 73%
10:00 +30°C° 0 mm 2 mps 759 mmHg 66%
11:00 +31°C° 0 mm 3 mps 759 mmHg 59%
12:00 +34°C° 0 mm 3 mps 758 mmHg 52%
13:00 +34°C° 0 mm 4 mps 758 mmHg 52%
14:00 +34°C° 0 mm 5 mps 757 mmHg 53%
15:00 +34°C° 0 mm 6 mps 756 mmHg 53%
16:00 +33°C° 0 mm 5 mps 756 mmHg 58%
17:00 +32°C° 0 mm 5 mps 756 mmHg 64%
18:00 +29°C° 0 mm 5 mps 756 mmHg 69%
19:00 +28°C° 0 mm 5 mps 756 mmHg 76%
20:00 +27°C° 0 mm 4 mps 757 mmHg 83%
21:00 +26°C° 0 mm 4 mps 757 mmHg 90%
22:00 +26°C° 0 mm 3 mps 757 mmHg 91%
23:00 +26°C° 0 mm 2 mps 757 mmHg 92%

23 Abril, Viernes

Tiempo Temperatura Precipitaciones Viento Presión Humedad
00:00 +26°C° 0 mm 2 mps 757 mmHg 93%
01:00 +26°C° 0 mm 2 mps 756 mmHg 94%
02:00 +26°C° 0 mm 2 mps 756 mmHg 95%
03:00 +25°C° 0 mm 2 mps 756 mmHg 96%
04:00 +25°C° 0 mm 3 mps 756 mmHg 95%
05:00 +25°C° 0 mm 3 mps 756 mmHg 94%
06:00 +26°C° 0 mm 3 mps 756 mmHg 94%
07:00 +27°C° 0 mm 3 mps 756 mmHg 85%
08:00 +29°C° 0 mm 3 mps 756 mmHg 77%
09:00 +30°C° 0 mm 3 mps 756 mmHg 68%
10:00 +34°C° 0 mm 3 mps 756 mmHg 60%
11:00 +36°C° 0 mm 2 mps 755 mmHg 52%
12:00 +38°C° 0 mm 2 mps 755 mmHg 44%
13:00 +37°C° 0 mm 4 mps 754 mmHg 46%
14:00 +37°C° 0 mm 5 mps 753 mmHg 47%
15:00 +36°C° 0 mm 7 mps 752 mmHg 49%
16:00 +35°C° 0 mm 7 mps 752 mmHg 56%
17:00 +33°C° 0 mm 6 mps 752 mmHg 64%
18:00 +30°C° 0 mm 6 mps 752 mmHg 71%
19:00 +29°C° 0 mm 6 mps 752 mmHg 77%
20:00 +28°C° 0 mm 6 mps 752 mmHg 82%
21:00 +27°C° 0 mm 5 mps 752 mmHg 87%
22:00 +27°C° 0 mm 5 mps 752 mmHg 87%
23:00 +27°C° 0 mm 4 mps 752 mmHg 87%

24 Abril, Sábado

Tiempo Temperatura Precipitaciones Viento Presión Humedad
00:00 +27°C° 0 mm 4 mps 751 mmHg 86%
01:00 +26°C° 0 mm 4 mps 751 mmHg 88%
02:00 +26°C° 0 mm 3 mps 751 mmHg 90%
03:00 +25°C° 0 mm 3 mps 750 mmHg 92%
04:00 +25°C° 0 mm 3 mps 751 mmHg 90%
05:00 +25°C° 0 mm 3 mps 751 mmHg 89%
06:00 +26°C° 0 mm 4 mps 752 mmHg 87%
07:00 +28°C° 0 mm 4 mps 753 mmHg 76%
08:00 +32°C° 0 mm 4 mps 753 mmHg 64%
09:00 +34°C° 0 mm 4 mps 754 mmHg 52%
10:00 +36°C° 0 mm 6 mps 754 mmHg 47%
11:00 +39°C° 0 mm 8 mps 754 mmHg 42%
12:00 +40°C° 0 mm 10 mps 755 mmHg 37%
13:00 +39°C° 0 mm 9 mps 755 mmHg 38%
14:00 +38°C° 0 mm 9 mps 755 mmHg 39%
15:00 +37°C° 0 mm 9 mps 755 mmHg 41%
16:00 +35°C° 0 mm 8 mps 755 mmHg 45%
17:00 +33°C° 0 mm 6 mps 756 mmHg 49%
18:00 +32°C° 0 mm 5 mps 756 mmHg 53%
19:00 +30°C° 0 mm 4 mps 757 mmHg 55%
20:00 +28°C° 0 mm 3 mps 758 mmHg 58%
21:00 +27°C° 0 mm 2 mps 758 mmHg 61%
22:00 +27°C° 0 mm 2 mps 758 mmHg 58%
23:00 +26°C° 0 mm 2 mps 759 mmHg 55%

25 Abril, Domingo

Tiempo Temperatura Precipitaciones Viento Presión Humedad
00:00 +26°C° 0 mm 2 mps 759 mmHg 52%
01:00 +26°C° 0 mm 2 mps 758 mmHg 50%
02:00 +25°C° 0 mm 2 mps 758 mmHg 48%
03:00 +25°C° 0 mm 2 mps 758 mmHg 46%
04:00 +24°C° 0 mm 2 mps 758 mmHg 45%
05:00 +24°C° 0 mm 2 mps 759 mmHg 45%
06:00 +23°C° 0 mm 2 mps 759 mmHg 44%
07:00 +26°C° 0 mm 2 mps 760 mmHg 39%
08:00 +29°C° 0 mm 3 mps 760 mmHg 34%
09:00 +33°C° 0 mm 3 mps 761 mmHg 29%
10:00 +34°C° 0 mm 4 mps 761 mmHg 28%
11:00 +36°C° 0 mm 5 mps 760 mmHg 26%
12:00 +37°C° 0 mm 5 mps 760 mmHg 25%
13:00 +36°C° 0 mm 5 mps 760 mmHg 27%
14:00 +36°C° 0 mm 6 mps 759 mmHg 29%
15:00 +35°C° 0 mm 6 mps 758 mmHg 31%
16:00 +34°C° 0 mm 5 mps 758 mmHg 38%
17:00 +32°C° 0 mm 5 mps 758 mmHg 44%
18:00 +29°C° 0 mm 5 mps 758 mmHg 51%
19:00 +28°C° 0 mm 4 mps 759 mmHg 64%
20:00 +26°C° 0 mm 3 mps 760 mmHg 77%
21:00 +24°C° 0 mm 1 mps 760 mmHg 89%
22:00 +24°C° 0 mm 1 mps 760 mmHg 90%
23:00 +23°C° 0 mm 1 mps 760 mmHg 90%
Mostrar más

Necesitamos Su Consentimiento

Meteoprog y nuestros Proveedores de Servicios pueden almacenar y acceder a sus datos personales como cookies, identificadores de dispositivo u otras tecnologías similares de su dispositivo y procesar dichos datos para personalizar contenido y anuncios, además de ofrecer funciones de redes sociales y analizar el tráfico.

  • Almacenar y/o acceder a información en su dispositivo

    Se puede almacenar o acceder a cookies, identificadores de dispositivo u otra información de su dispositivo para los fines anteriormente indicados.

  • Anuncios y contenido personalizados, medición de anuncios y contenido, percepciones del público, y desarrollo de productos

    Los anuncios y el contenido pueden personalizarse en base a su perfil. Se pueden añadir más datos para personalizar mejor los anuncios y contenidos. Se puede medir el rendimiento de los anuncios y contenidos. Se puede obtener la percepción sobre el público que ha visto los anuncios y contenidos. Dichos datos pueden usarse para desarrollar o mejorar la experiencia del usuario, sistemas y software.

Al hacer clic en ‘Estoy De Acuerdo’ usted permitirá el uso de las cookies, identificadores de dispositivo, balizas web u otras tecnologías similares indicadas. Su configuración puede cambiarse desde el navegador de su dispositivo.

Para ciertos fines, los intereses legítimos pueden ser considerados por encima del consentimiento. Puede leer más sobre ello en nuestra Política de Privacidad y Cookies.